1545919200.35,29567,0.0,0.0,-4.67,-5.31,-5.31,0,*5A
1545919201.6,29568,0.0,0.0,-4.67,-5.35,-5.31,0,*51
1545919202.88,29569,0.0,0.0,-4.67,-5.31,-5.31,0,*54
1545919204.16,29570,0.0,0.0,-4.67,-5.31,-5.23,0,*5F
1545919205.41,29571,0.0,0.0,-4.67,-5.35,-5.23,0,*5A
1545919206.66,29572,0.0,0.0,-4.65,-5.19,-5.19,0,*5C
1545919207.94,29573,0.0,0.0,-4.67,-5.23,-5.23,0,*5F
1545919209.22,29574,0.0,0.0,-4.67,-5.23,-5.23,0,*58
1545919210.5,29575,0.0,0.0,-4.67,-5.23,-5.23,0,*59
1545919211.75,29576,0.0,0.0,-4.65,-5.19,-5.19,0,*58
1545919213.03,29577,0.0,0.0,-4.67,-5.23,-5.31,0,*58
1545919214.31,29578,0.0,0.0,-4.67,-5.31,-5.31,0,*54
1545919215.59,29579,0.0,0.0,-4.67,-5.23,-5.31,0,*56
1545919216.87,29580,0.0,0.0,-4.67,-5.23,-5.19,0,*5A
1545919218.14,29581,0.0,0.0,-4.67,-5.19,-5.23,0,*5B
1545919219.42,29582,0.0,0.0,-4.67,-5.23,-5.19,0,*58
1545919220.7,29583,0.0,0.0,-4.67,-5.23,-5.23,0,*50
1545919221.95,29584,0.0,0.0,-4.65,-5.27,-5.19,0,*58
1545919223.2,29585,0.0,0.0,-4.65,-5.19,-5.19,0,*54
1545919224.48,29586,0.0,0.0,-4.67,-5.19,-5.19,0,*55
1545919225.76,29587,0.0,0.0,-4.67,-5.23,-5.19,0,*5D
1545919227.04,29588,0.0,0.0,-4.67,-5.23,-5.31,0,*58
1545919228.32,29589,0.0,0.0,-4.67,-5.23,-5.23,0,*5A
1545919229.6,29590,0.0,0.0,-4.67,-5.23,-5.23,0,*52
1545919230.85,29591,0.0,0.0,-4.65,-5.19,-5.15,0,*5D
1545919232.1,29592,0.0,0.0,-4.65,-5.15,-5.15,0,*52
1545919233.38,29593,0.0,0.0,-4.67,-5.19,-5.23,0,*58
1545919234.63,29594,0.0,0.0,-4.65,-5.19,-5.19,0,*54
1545919235.9,29595,0.0,0.0,-4.67,-5.19,-5.19,0,*57
1545919237.16,29596,0.0,0.0,-4.65,-5.15,-5.07,0,*55
1545919238.4,29597,0.0,0.0,-4.65,-5.11,-5.11,0,*57
1545919239.65,29598,0.0,0.0,-4.65,-5.15,-5.15,0,*58
1545919240.93,29599,0.0,0.0,-4.67,-5.19,-5.23,0,*52
1545919242.18,29600,0.0,0.0,-4.65,-5.15,-5.19,0,*56
1545919243.43,29601,0.0,0.0,-4.65,-5.15,-5.15,0,*5B
1545919244.71,29602,0.0,0.0,-4.67,-5.19,-5.19,0,*5A
1545919245.98,29603,0.0,0.0,-4.67,-5.19,-5.19,0,*5B
1545919247.23,29604,0.0,0.0,-4.65,-5.15,-5.15,0,*5E
1545919248.48,29605,0.0,0.0,-4.65,-5.19,-5.15,0,*53
1545919249.73,29606,0.0,0.0,-4.65,-5.15,-5.19,0,*50
1545919250.98,29607,0.0,0.0,-4.65,-5.19,-5.15,0,*51
1545919252.23,29608,0.0,0.0,-4.65,-5.19,-5.19,0,*52
1545919253.48,29609,0.0,0.0,-4.65,-5.19,-5.15,0,*5F
1545919254.73,29610,0.0,0.0,-4.65,-5.19,-5.15,0,*57
1545919255.98,29611,0.0,0.0,-4.65,-5.15,-5.15,0,*5A
1545919257.23,29612,0.0,0.0,-4.65,-5.19,-5.15,0,*55
1545919258.48,29613,0.0,0.0,-4.65,-5.15,-5.19,0,*54
1545919259.73,29614,0.0,0.0,-4.65,-5.15,-5.19,0,*53
1545919260.98,29615,0.0,0.0,-4.65,-5.15,-5.15,0,*5E
1545919262.23,29616,0.0,0.0,-4.65,-5.15,-5.15,0,*5D
1545919263.49,29617,0.0,0.0,-4.65,-5.15,-5.15,0,*5C
1545919264.74,29618,0.0,0.0,-4.65,-5.15,-5.15,0,*53
1545919266.01,29619,0.0,0.0,-4.67,-5.19,-5.19,0,*50
1545919267.26,29620,0.0,0.0,-4.65,-5.15,-5.15,0,*58
1545919268.52,29621,0.0,0.0,-4.65,-5.07,-5.07,0,*59
1545919269.79,29622,0.0,0.0,-4.63,-5.15,-5.07,0,*5F
1545919271.05,29623,0.0,0.0,-4.65,-5.15,-5.07,0,*58
1545919272.3,29624,0.0,0.0,-4.65,-5.15,-5.07,0,*5F
1545919273.58,29625,0.0,0.0,-4.63,-5.07,-5.07,0,*5B
1545919274.85,29626,0.0,0.0,-4.63,-5.15,-5.07,0,*5B
1545919276.13,29627,0.0,0.0,-4.63,-5.07,-5.07,0,*59
1545919277.4,29628,0.0,0.0,-4.63,-5.07,-5.07,0,*56
1545919278.68,29629,0.0,0.0,-4.63,-5.07,-5.07,0,*57
1545919279.93,29630,0.0,0.0,-4.61,-5.03,-5.03,0,*5D
1545919281.21,29631,0.0,0.0,-4.63,-5.07,-5.07,0,*5E
1545919282.48,29632,0.0,0.0,-4.63,-5.15,-5.15,0,*5D
1545919283.75,29633,0.0,0.0,-4.63,-5.19,-5.19,0,*5C
1545919284.99,29634,0.0,0.0,-4.61,-5.11,-5.11,0,*59
1545919286.26,29635,0.0,0.0,-4.63,-5.19,-5.15,0,*56
1545919287.53,29636,0.0,0.0,-4.63,-5.19,-5.15,0,*55
1545919288.78,29637,0.0,0.0,-4.61,-5.15,-5.15,0,*5A
1545919290.03,29638,0.0,0.0,-4.61,-5.15,-5.11,0,*51
1545919291.28,29639,0.0,0.0,-4.61,-5.15,-5.11,0,*50
1545919292.53,29640,0.0,0.0,-4.61,-5.15,-5.15,0,*5A
1545919293.8,29641,0.0,0.0,-4.63,-5.19,-5.27,0,*54
1545919295.07,29642,0.0,0.0,-4.63,-5.27,-5.27,0,*5A
1545919296.34,29643,0.0,0.0,-4.63,-5.27,-5.27,0,*5B
1545919297.59,29644,0.0,0.0,-4.61,-5.27,-5.15,0,*5F
1545919298.86,29645,0.0,0.0,-4.63,-5.27,-5.15,0,*5C
1545919300.13,29646,0.0,0.0,-4.63,-5.19,-5.15,0,*52
1545919301.4,29647,0.0,0.0,-4.63,-5.15,-5.15,0,*5F
1545919302.65,29648,0.0,0.0,-4.61,-5.15,-5.11,0,*56
1545919303.92,29649,0.0,0.0,-4.63,-5.15,-5.19,0,*5D
1545919305.16,29650,0.0,0.0,-4.61,-5.11,-5.15,0,*5F
1545919306.43,29651,0.0,0.0,-4.63,-5.19,-5.19,0,*58
1545919307.7,29652,0.0,0.0,-4.63,-5.27,-5.19,0,*56
1545919308.97,29653,0.0,0.0,-4.63,-5.27,-5.27,0,*5A
1545919310.24,29654,0.0,0.0,-4.63,-5.19,-5.19,0,*5D
1545919311.52,29655,0.0,0.0,-4.63,-5.31,-5.27,0,*5B
1545919312.79,29656,0.0,0.0,-4.63,-5.27,-5.27,0,*5F
1545919314.06,29657,0.0,0.0,-4.63,-5.15,-5.19,0,*52
1545919315.33,29658,0.0,0.0,-4.63,-5.19,-5.19,0,*51
1545919316.58,29659,0.0,0.0,-4.61,-5.23,-5.15,0,*57
1545919317.85,29660,0.0,0.0,-4.63,-5.31,-5.27,0,*5D
1545919319.1,29661,0.0,0.0,-4.61,-5.27,-5.27,0,*59
1545919320.37,29662,0.0,0.0,-4.63,-5.27,-5.19,0,*55
1545919321.65,29663,0.0,0.0,-4.63,-5.23,-5.19,0,*50
1545919322.9,29664,0.0,0.0,-4.61,-5.23,-5.15,0,*59
1545919324.17,29665,0.0,0.0,-4.63,-5.19,-5.27,0,*52
1545919325.42,29666,0.0,0.0,-4.61,-5.23,-5.15,0,*5B
1545919326.68,29667,0.0,0.0,-4.61,-5.23,-5.23,0,*5F
1545919327.93,29668,0.0,0.0,-4.61,-5.23,-5.15,0,*55
1545919329.2,29669,0.0,0.0,-4.63,-5.27,-5.27,0,*53
1545919330.45,29670,0.0,0.0,-4.61,-5.23,-5.23,0,*59
1545919331.7,29671,0.0,0.0,-4.61,-5.27,-5.27,0,*58
1545919332.97,29672,0.0,0.0,-4.63,-5.27,-5.31,0,*5E
1545919334.25,29673,0.0,0.0,-4.63,-5.31,-5.31,0,*58
1545919335.5,29674,0.0,0.0,-4.61,-5.27,-5.23,0,*59
1545919336.75,29675,0.0,0.0,-4.61,-5.23,-5.23,0,*5C
1545919338.01,29676,0.0,0.0,-4.61,-5.31,-5.27,0,*58
1545919339.26,29677,0.0,0.0,-4.61,-5.23,-5.23,0,*5E
1545919340.54,29678,0.0,0.0,-4.63,-5.31,-5.27,0,*54
1545919341.8,29679,0.0,0.0,-4.63,-5.27,-5.31,0,*55
1545919343.08,29680,0.0,0.0,-4.63,-5.31,-5.31,0,*54
1545919344.3,29681,0.0,0.0,-4.61,-5.23,-5.39,0,*5C
1545919345.57,29682,0.0,0.0,-4.63,-5.31,-5.31,0,*56
1545919346.82,29683,0.0,0.0,-4.63,-5.39,-5.31,0,*5F
1545919348.09,29684,0.0,0.0,-4.63,-5.31,-5.31,0,*50
1545919349.36,29685,0.0,0.0,-4.63,-5.31,-5.31,0,*51
1545919350.63,29686,0.0,0.0,-4.63,-5.27,-5.27,0,*52
1545919351.9,29687,0.0,0.0,-4.63,-5.31,-5.31,0,*53
1545919353.15,29688,0.0,0.0,-4.61,-5.27,-5.23,0,*5A
1545919354.41,29689,0.0,0.0,-4.61,-5.23,-5.23,0,*5F
1545919355.68,29690,0.0,0.0,-4.63,-5.31,-5.27,0,*52
1545919356.94,29691,0.0,0.0,-4.61,-5.23,-5.23,0,*56
1545919358.21,29692,0.0,0.0,-4.63,-5.27,-5.27,0,*57
1545919359.46,29693,0.0,0.0,-4.61,-5.27,-5.23,0,*50
1545919360.71,29694,0.0,0.0,-4.61,-5.27,-5.27,0,*53
1545919361.95,29695,0.0,0.0,-4.63,-5.43,-5.31,0,*55
1545919363.2,29696,0.0,0.0,-4.63,-5.39,-5.31,0,*5B
1545919364.47,29697,0.0,0.0,-4.63,-5.27,-5.27,0,*52
1545919365.69,29698,0.0,0.0,-4.61,-5.35,-5.27,0,*5C
1545919366.95,29699,0.0,0.0,-4.61,-5.23,-5.23,0,*5E
1545919368.19,29700,0.0,0.0,-4.63,-5.31,-5.39,0,*55
1545919369.41,29701,0.0,0.0,-4.61,-5.27,-5.35,0,*5D
1545919370.68,29702,0.0,0.0,-4.63,-5.31,-5.31,0,*5F
1545919371.93,29703,0.0,0.0,-4.61,-5.31,-5.31,0,*5C
1545919373.18,29704,0.0,0.0,-4.63,-5.31,-5.39,0,*51
1545919374.45,29705,0.0,0.0,-4.63,-5.31,-5.31,0,*58
1545919375.72,29706,0.0,0.0,-4.63,-5.31,-5.27,0,*5C
1545919376.99,29707,0.0,0.0,-4.63,-5.27,-5.27,0,*5A
1545919378.26,29708,0.0,0.0,-4.63,-5.27,-5.31,0,*52
1545919379.54,29709,0.0,0.0,-4.63,-5.31,-5.27,0,*53
1545919380.81,29710,0.0,0.0,-4.63,-5.27,-5.27,0,*5C
1545919382.08,29711,0.0,0.0,-4.63,-5.23,-5.31,0,*5E
1545919383.33,29712,0.0,0.0,-4.61,-5.27,-5.15,0,*5D
1545919384.6,29713,0.0,0.0,-4.63,-5.27,-5.23,0,*5B
1545919385.86,29714,0.0,0.0,-4.61,-5.23,-5.23,0,*5A
1545919387.11,29715,0.0,0.0,-4.61,-5.15,-5.23,0,*5E
1545919388.36,29716,0.0,0.0,-4.61,-5.27,-5.23,0,*5C
1545919389.61,29717,0.0,0.0,-4.61,-5.27,-5.23,0,*5D
1545919390.87,29718,0.0,0.0,-4.61,-5.23,-5.23,0,*56
1545919392.12,29719,0.0,0.0,-4.61,-5.23,-5.23,0,*57
1545919393.39,29720,0.0,0.0,-4.63,-5.27,-5.27,0,*5F
1545919394.67,29721,0.0,0.0,-4.63,-5.27,-5.27,0,*5E
1545919395.94,29722,0.0,0.0,-4.63,-5.27,-5.27,0,*5D
1545919397.19,29723,0.0,0.0,-4.61,-5.23,-5.23,0,*5E
1545919398.46,29724,0.0,0.0,-4.63,-5.27,-5.27,0,*5B
1545919399.73,29725,0.0,0.0,-4.63,-5.27,-5.27,0,*5A
1545919401.01,29726,0.0,0.0,-4.63,-5.31,-5.27,0,*5E
1545919402.28,29727,0.0,0.0,-4.63,-5.27,-5.27,0,*58
1545919403.53,29728,0.0,0.0,-4.61,-5.27,-5.23,0,*51
1545919404.79,29729,0.0,0.0,-4.61,-5.23,-5.23,0,*54
1545919406.05,29730,0.0,0.0,-4.63,-5.27,-5.31,0,*59
1545919407.33,29731,0.0,0.0,-4.63,-5.31,-5.31,0,*5F
1545919408.6,29732,0.0,0.0,-4.63,-5.31,-5.27,0,*5B
1545919409.87,29733,0.0,0.0,-4.63,-5.27,-5.27,0,*5D
1545919411.14,29734,0.0,0.0,-4.63,-5.27,-5.31,0,*5D
1545919412.39,29735,0.0,0.0,-4.61,-5.27,-5.27,0,*59
1545919413.65,29736,0.0,0.0,-4.61,-5.15,-5.23,0,*5F
1545919414.9,29737,0.0,0.0,-4.61,-5.23,-5.23,0,*5B
1545919416.18,29738,0.0,0.0,-4.63,-5.31,-5.27,0,*51
1545919417.43,29739,0.0,0.0,-4.61,-5.23,-5.23,0,*55
1545919418.68,29740,0.0,0.0,-4.61,-5.23,-5.27,0,*5F
1545919419.95,29741,0.0,0.0,-4.63,-5.19,-5.19,0,*58
1545919421.2,29742,0.0,0.0,-4.61,-5.15,-5.15,0,*59
1545919422.47,29743,0.0,0.0,-4.63,-5.19,-5.19,0,*5A
1545919423.73,29744,0.0,0.0,-4.61,-5.23,-5.23,0,*5F
1545919424.98,29745,0.0,0.0,-4.61,-5.23,-5.23,0,*5E
1545919426.24,29746,0.0,0.0,-4.61,-5.23,-5.23,0,*5D
1545919427.49,29747,0.0,0.0,-4.61,-5.27,-5.23,0,*58
1545919428.74,29748,0.0,0.0,-4.61,-5.23,-5.11,0,*52
1545919430.0,29749,0.0,0.0,-4.61,-5.23,-5.23,0,*52
1545919431.25,29750,0.0,0.0,-4.61,-5.23,-5.23,0,*5A
1545919432.5,29751,0.0,0.0,-4.61,-5.27,-5.27,0,*5B
1545919433.77,29752,0.0,0.0,-4.63,-5.27,-5.27,0,*5A
1545919435.04,29753,0.0,0.0,-4.63,-5.27,-5.23,0,*5F
1545919436.31,29754,0.0,0.0,-4.63,-5.27,-5.19,0,*51
1545919437.57,29755,0.0,0.0,-4.61,-5.15,-5.23,0,*5A
1545919438.82,29756,0.0,0.0,-4.61,-5.23,-5.15,0,*59
1545919440.09,29757,0.0,0.0,-4.63,-5.27,-5.19,0,*52
1545919441.34,29758,0.0,0.0,-4.61,-5.23,-5.15,0,*57
1545919442.59,29759,0.0,0.0,-4.61,-5.23,-5.27,0,*57
1545919443.85,29760,0.0,0.0,-4.61,-5.23,-5.27,0,*5D
1545919445.1,29761,0.0,0.0,-4.61,-5.23,-5.27,0,*5C
1545919446.35,29762,0.0,0.0,-4.61,-5.27,-5.27,0,*5B
1545919447.61,29763,0.0,0.0,-4.61,-5.23,-5.23,0,*5A
1545919448.86,29764,0.0,0.0,-4.61,-5.23,-5.27,0,*59
1545919450.14,29765,0.0,0.0,-4.63,-5.31,-5.31,0,*5E
1545919451.39,29766,0.0,0.0,-4.61,-5.23,-5.23,0,*5F
1545919452.64,29767,0.0,0.0,-4.61,-5.23,-5.27,0,*5A
1545919453.9,29768,0.0,0.0,-4.61,-5.23,-5.23,0,*51
1545919455.17,29769,0.0,0.0,-4.63,-5.27,-5.31,0,*55
1545919456.44,29770,0.0,0.0,-4.63,-5.31,-5.27,0,*5D
1545919457.69,29771,0.0,0.0,-4.61,-5.27,-5.23,0,*5D
1545919458.92,29772,0.0,0.0,-4.61,-5.35,-5.23,0,*5D
1545919460.17,29773,0.0,0.0,-4.61,-5.23,-5.27,0,*5F
1545919461.43,29774,0.0,0.0,-4.61,-5.23,-5.27,0,*58
1545919462.7,29775,0.0,0.0,-4.63,-5.27,-5.31,0,*58
1545919463.95,29776,0.0,0.0,-4.61,-5.27,-5.23,0,*5A
1545919465.2,29777,0.0,0.0,-4.61,-5.27,-5.27,0,*5F
1545919466.45,29778,0.0,0.0,-4.61,-5.23,-5.23,0,*50
1545919467.7,29779,0.0,0.0,-4.61,-5.27,-5.27,0,*51
1545919468.98,29780,0.0,0.0,-4.59,-5.27,-5.23,0,*58
1545919470.25,29781,0.0,0.0,-4.59,-5.27,-5.23,0,*59
1545919471.5,29782,0.0,0.0,-4.61,-5.27,-5.23,0,*51
1545919472.77,29783,0.0,0.0,-4.59,-5.27,-5.23,0,*5B
1545919474.03,29784,0.0,0.0,-4.61,-5.23,-5.27,0,*57
1545919475.28,29785,0.0,0.0,-4.61,-5.23,-5.27,0,*56
1545919476.54,29786,0.0,0.0,-4.61,-5.23,-5.23,0,*51
1545919477.79,29787,0.0,0.0,-4.61,-5.23,-5.23,0,*50
1545919479.05,29788,0.0,0.0,-4.61,-5.23,-5.23,0,*5F
1545919480.3,29789,0.0,0.0,-4.61,-5.27,-5.23,0,*5A
1545919481.55,29790,0.0,0.0,-4.61,-5.23,-5.27,0,*52
1545919482.8,29791,0.0,0.0,-4.61,-5.27,-5.27,0,*57
1545919484.06,29792,0.0,0.0,-4.61,-5.23,-5.23,0,*54
1545919485.31,29793,0.0,0.0,-4.61,-5.23,-5.23,0,*55
1545919486.57,29794,0.0,0.0,-4.61,-5.23,-5.27,0,*56
1545919487.82,29795,0.0,0.0,-4.61,-5.27,-5.27,0,*53
1545919489.04,29796,0.0,0.0,-4.61,-5.27,-5.35,0,*53
1545919490.31,29797,0.0,0.0,-4.63,-5.31,-5.31,0,*53
1545919491.56,29798,0.0,0.0,-4.61,-5.27,-5.23,0,*5A
1545919492.81,29799,0.0,0.0,-4.61,-5.27,-5.27,0,*5F
1545919494.06,29800,0.0,0.0,-4.61,-5.27,-5.27,0,*50
1545919495.31,29801,0.0,0.0,-4.61,-5.27,-5.27,0,*51
1545919496.58,29802,0.0,0.0,-4.63,-5.31,-5.31,0,*50
1545919497.84,29803,0.0,0.0,-4.61,-5.31,-5.31,0,*53
1545919499.09,29804,0.0,0.0,-4.61,-5.23,-5.23,0,*54
1545919500.34,29805,0.0,0.0,-4.61,-5.27,-5.23,0,*51
1545919501.59,29806,0.0,0.0,-4.61,-5.27,-5.23,0,*52
1545919502.87,29807,0.0,0.0,-4.63,-5.31,-5.27,0,*52
1545919504.14,29808,0.0,0.0,-4.63,-5.27,-5.27,0,*5A
1545919505.39,29809,0.0,0.0,-4.61,-5.23,-5.23,0,*59
1545919506.66,29810,0.0,0.0,-4.63,-5.31,-5.31,0,*53
1545919507.94,29811,0.0,0.0,-4.59,-5.23,-5.27,0,*5F
1545919509.19,29812,0.0,0.0,-4.59,-5.35,-5.27,0,*5B
1545919510.43,29813,0.0,0.0,-4.59,-5.35,-5.27,0,*5A
1545919511.68,29814,0.0,0.0,-4.61,-5.27,-5.23,0,*51
1545919512.96,29815,0.0,0.0,-4.59,-5.23,-5.27,0,*5B
1545919514.23,29816,0.0,0.0,-4.59,-5.27,-5.23,0,*58
1545919515.5,29817,0.0,0.0,-4.63,-5.31,-5.31,0,*54
1545919516.77,29818,0.0,0.0,-4.63,-5.31,-5.31,0,*5B
1545919518.02,29819,0.0,0.0,-4.61,-5.27,-5.23,0,*5C
1545919519.25,29820,0.0,0.0,-4.61,-5.39,-5.27,0,*5D
1545919520.47,29821,0.0,0.0,-4.61,-5.35,-5.27,0,*50
1545919521.73,29822,0.0,0.0,-4.61,-5.27,-5.23,0,*54
1545919522.99,29823,0.0,0.0,-4.63,-5.27,-5.31,0,*54
1545919524.25,29824,0.0,0.0,-4.61,-5.27,-5.23,0,*52
1545919525.5,29825,0.0,0.0,-4.61,-5.27,-5.27,0,*57
1545919526.75,29826,0.0,0.0,-4.61,-5.23,-5.15,0,*51
1545919528.0,29827,0.0,0.0,-4.61,-5.27,-5.15,0,*54
1545919529.24,29828,0.0,0.0,-4.61,-5.11,-5.11,0,*5A
1545919530.48,29829,0.0,0.0,-4.61,-5.11,-5.11,0,*5B
1545919531.73,29830,0.0,0.0,-4.61,-5.15,-5.11,0,*57
1545919532.98,29831,0.0,0.0,-4.61,-5.15,-5.15,0,*52
1545919534.23,29832,0.0,0.0,-4.61,-5.11,-5.15,0,*55
1545919535.48,29833,0.0,0.0,-4.61,-5.15,-5.03,0,*57
1545919536.73,29834,0.0,0.0,-4.61,-5.11,-5.15,0,*53
1545919537.98,29835,0.0,0.0,-4.61,-5.15,-5.11,0,*52
1545919539.23,29836,0.0,0.0,-4.61,-5.15,-5.15,0,*55
1545919540.5,29837,0.0,0.0,-4.59,-5.15,-5.15,0,*5F
1545919541.76,29838,0.0,0.0,-4.59,-5.11,-5.15,0,*54
1545919543.01,29839,0.0,0.0,-4.61,-5.15,-5.15,0,*5A
1545919544.28,29840,0.0,0.0,-4.59,-5.11,-5.15,0,*5B
1545919545.55,29841,0.0,0.0,-4.59,-5.23,-5.11,0,*5F
1545919546.82,29842,0.0,0.0,-4.59,-5.11,-5.23,0,*5C
1545919548.09,29843,0.0,0.0,-4.59,-5.15,-5.15,0,*5C
1545919549.34,29844,0.0,0.0,-4.57,-5.15,-5.11,0,*51
1545919550.61,29845,0.0,0.0,-4.59,-5.15,-5.15,0,*5A
1545919551.87,29846,0.0,0.0,-4.59,-5.11,-5.15,0,*5D
1545919553.14,29847,0.0,0.0,-4.59,-5.15,-5.11,0,*5C
1545919554.41,29848,0.0,0.0,-4.59,-5.15,-5.11,0,*53
1545919555.68,29849,0.0,0.0,-4.59,-5.15,-5.11,0,*52
1545919556.93,29850,0.0,0.0,-4.57,-5.15,-5.07,0,*53
1545919558.18,29851,0.0,0.0,-4.57,-5.07,-5.11,0,*56
1545919559.45,29852,0.0,0.0,-4.59,-5.11,-5.03,0,*5F
1545919560.72,29853,0.0,0.0,-4.59,-5.11,-5.03,0,*5E
1545919561.92,29854,0.0,0.0,-4.59,-4.99,-4.99,0,*5A
1545919563.16,29855,0.0,0.0,-4.59,-4.99,-5.03,0,*59
1545919564.35,29856,0.0,0.0,-4.57,-4.99,-4.99,0,*56
1545919565.62,29857,0.0,0.0,-4.59,-5.03,-5.03,0,*59
1545919566.89,29858,0.0,0.0,-4.59,-5.03,-5.03,0,*56
1545919568.16,29859,0.0,0.0,-4.59,-5.11,-5.03,0,*54
1545919569.43,29860,0.0,0.0,-4.59,-5.11,-5.11,0,*5D
1545919570.68,29861,0.0,0.0,-4.57,-5.07,-5.07,0,*52
1545919571.95,29862,0.0,0.0,-4.59,-5.15,-5.03,0,*58
1545919573.14,29863,0.0,0.0,-4.57,-4.99,-4.99,0,*50
1545919574.37,29864,0.0,0.0,-4.59,-5.11,-4.99,0,*58
1545919575.59,29865,0.0,0.0,-4.57,-5.07,-4.99,0,*50
1545919576.84,29866,0.0,0.0,-4.57,-5.07,-5.07,0,*55
1545919578.08,29867,0.0,0.0,-4.57,-5.11,-5.07,0,*53
1545919579.33,29868,0.0,0.0,-4.57,-5.11,-5.07,0,*5C
1545919580.57,29869,0.0,0.0,-4.57,-5.11,-5.11,0,*5A
1545919581.84,29870,0.0,0.0,-4.59,-5.15,-5.15,0,*5C
1545919583.08,29871,0.0,0.0,-4.57,-5.11,-5.11,0,*53
1545919584.35,29872,0.0,0.0,-4.59,-5.11,-5.15,0,*5A
1545919585.59,29873,0.0,0.0,-4.57,-5.11,-5.11,0,*51
1545919586.83,29874,0.0,0.0,-4.57,-5.11,-5.11,0,*56
1545919588.1,29875,0.0,0.0,-4.59,-5.15,-5.11,0,*5D
1545919589.36,29876,0.0,0.0,-4.59,-5.11,-5.11,0,*5A
1545919590.63,29877,0.0,0.0,-4.59,-5.15,-5.11,0,*5F
1545919591.91,29878,0.0,0.0,-4.59,-5.15,-5.15,0,*54
1545919593.15,29879,0.0,0.0,-4.57,-5.11,-5.11,0,*5B
1545919594.39,29880,0.0,0.0,-4.57,-5.11,-5.07,0,*5A
1545919595.64,29881,0.0,0.0,-4.57,-5.07,-5.11,0,*5B
1545919596.88,29882,0.0,0.0,-4.57,-5.11,-5.11,0,*5F
1545919598.13,29883,0.0,0.0,-4.57,-5.07,-5.07,0,*5E
1545919599.37,29884,0.0,0.0,-4.57,-5.11,-5.11,0,*59
1545919600.61,29885,0.0,0.0,-4.57,-5.11,-5.11,0,*58
1545919601.86,29886,0.0,0.0,-4.57,-5.11,-5.07,0,*5C
1545919603.1,29887,0.0,0.0,-4.57,-5.11,-5.19,0,*52
1545919604.35,29888,0.0,0.0,-4.57,-5.19,-5.19,0,*55
1545919605.59,29889,0.0,0.0,-4.57,-5.19,-5.19,0,*54
1545919606.84,29890,0.0,0.0,-4.57,-5.19,-5.23,0,*55
1545919608.09,29891,0.0,0.0,-4.57,-5.19,-5.11,0,*55
1545919609.33,29892,0.0,0.0,-4.57,-5.19,-5.07,0,*51
1545919610.58,29893,0.0,0.0,-4.57,-5.19,-5.11,0,*57
1545919611.82,29894,0.0,0.0,-4.57,-5.19,-5.19,0,*58
1545919613.07,29895,0.0,0.0,-4.57,-5.11,-5.11,0,*59
1545919614.31,29896,0.0,0.0,-4.57,-5.11,-5.11,0,*5A
1545919615.55,29897,0.0,0.0,-4.57,-5.11,-5.07,0,*5C
1545919616.8,29898,0.0,0.0,-4.57,-5.07,-5.07,0,*54
1545919618.07,29899,0.0,0.0,-4.59,-5.15,-5.15,0,*5B
1545919619.32,29900,0.0,0.0,-4.57,-5.11,-5.07,0,*53
1545919620.58,29901,0.0,0.0,-4.59,-5.11,-5.15,0,*5F
1545919621.83,29902,0.0,0.0,-4.57,-5.15,-5.11,0,*52
1545919623.08,29903,0.0,0.0,-4.57,-5.11,-5.07,0,*50
1545919624.32,29904,0.0,0.0,-4.57,-5.11,-5.11,0,*50
1545919625.56,29905,0.0,0.0,-4.57,-5.11,-5.11,0,*51
1545919626.8,29906,0.0,0.0,-4.57,-5.11,-5.07,0,*55
1545919628.04,29907,0.0,0.0,-4.57,-5.11,-5.19,0,*5B
1545919629.29,29908,0.0,0.0,-4.57,-5.19,-5.19,0,*5C
1545919630.56,29909,0.0,0.0,-4.59,-5.15,-5.15,0,*53
1545919631.8,29910,0.0,0.0,-4.57,-5.11,-5.11,0,*55
1545919633.07,29911,0.0,0.0,-4.59,-5.15,-5.11,0,*5E
1545919634.31,29912,0.0,0.0,-4.57,-5.11,-5.11,0,*57
1545919635.56,29913,0.0,0.0,-4.57,-5.11,-5.07,0,*51
1545919636.8,29914,0.0,0.0,-4.57,-5.11,-5.11,0,*51
1545919638.04,29915,0.0,0.0,-4.57,-5.11,-5.11,0,*50
1545919639.29,29916,0.0,0.0,-4.57,-5.11,-5.07,0,*54
1545919640.53,29917,0.0,0.0,-4.57,-5.11,-5.07,0,*55
1545919641.77,29918,0.0,0.0,-4.57,-5.11,-5.11,0,*5D
1545919643.01,29919,0.0,0.0,-4.57,-5.11,-5.11,0,*5C
1545919644.28,29920,0.0,0.0,-4.55,-5.11,-5.07,0,*53
1545919645.52,29921,0.0,0.0,-4.57,-5.19,-5.11,0,*5F
1545919646.77,29922,0.0,0.0,-4.57,-5.19,-5.19,0,*54
1545919648.01,29923,0.0,0.0,-4.57,-5.11,-5.19,0,*5D
1545919649.26,29924,0.0,0.0,-4.57,-5.11,-5.07,0,*55
1545919650.5,29925,0.0,0.0,-4.57,-5.11,-5.11,0,*53
1545919651.74,29926,0.0,0.0,-4.57,-5.19,-5.11,0,*58
1545919652.98,29927,0.0,0.0,-4.57,-5.11,-5.11,0,*51
1545919654.25,29928,0.0,0.0,-4.55,-5.11,-5.07,0,*5B
1545919655.5,29929,0.0,0.0,-4.57,-5.19,-5.19,0,*5F
1545919656.74,29930,0.0,0.0,-4.57,-5.07,-5.11,0,*50
1545919657.99,29931,0.0,0.0,-4.57,-5.19,-5.07,0,*59
1545919659.25,29932,0.0,0.0,-4.57,-5.07,-5.07,0,*55
1545919660.49,29933,0.0,0.0,-4.57,-5.11,-5.07,0,*53
1545919661.74,29934,0.0,0.0,-4.57,-5.07,-5.11,0,*54
1545919662.98,29935,0.0,0.0,-4.57,-5.11,-5.07,0,*55
1545919664.25,29936,0.0,0.0,-4.55,-5.11,-5.07,0,*54
1545919665.51,29937,0.0,0.0,-4.55,-5.11,-5.11,0,*52
1545919666.79,29938,0.0,0.0,-4.51,-5.03,-5.03,0,*59
1545919668.06,29939,0.0,0.0,-4.55,-5.11,-5.11,0,*5C
1545919669.32,29940,0.0,0.0,-4.55,-5.11,-5.11,0,*52
1545919670.58,29941,0.0,0.0,-4.55,-5.11,-5.11,0,*53
1545919671.85,29942,0.0,0.0,-4.55,-5.11,-5.11,0,*50
1545919673.11,29943,0.0,0.0,-4.55,-5.11,-5.11,0,*51
1545919674.35,29944,0.0,0.0,-4.57,-5.11,-5.11,0,*54
1545919675.62,29945,0.0,0.0,-4.55,-5.11,-5.11,0,*57
1545919676.88,29946,0.0,0.0,-4.55,-5.11,-5.19,0,*5C
1545919678.15,29947,0.0,0.0,-4.55,-5.19,-5.11,0,*5D
1545919679.41,29948,0.0,0.0,-4.55,-5.19,-5.11,0,*52
1545919680.69,29949,0.0,0.0,-4.55,-5.07,-5.11,0,*5C
1545919681.95,29950,0.0,0.0,-4.55,-5.11,-5.19,0,*5B
1545919683.23,29951,0.0,0.0,-4.51,-5.15,-5.07,0,*55
1545919684.49,29952,0.0,0.0,-4.55,-5.11,-5.19,0,*59
1545919685.76,29953,0.0,0.0,-4.55,-5.07,-5.11,0,*57
1545919687.04,29954,0.0,0.0,-4.51,-5.07,-5.11,0,*54
1545919688.31,29955,0.0,0.0,-4.55,-5.19,-5.23,0,*5F
1545919689.57,29956,0.0,0.0,-4.55,-5.11,-5.19,0,*5D
1545919690.84,29957,0.0,0.0,-4.55,-5.11,-5.11,0,*54
1545919692.1,29958,0.0,0.0,-4.55,-5.19,-5.11,0,*53
1545919693.38,29959,0.0,0.0,-4.55,-5.19,-5.07,0,*55
1545919694.65,29960,0.0,0.0,-4.55,-5.23,-5.11,0,*51
1545919695.91,29961,0.0,0.0,-4.55,-5.19,-5.11,0,*59
1545919697.18,29962,0.0,0.0,-4.55,-5.11,-5.11,0,*52
1545919698.44,29963,0.0,0.0,-4.55,-5.11,-5.11,0,*53
1545919699.71,29964,0.0,0.0,-4.55,-5.11,-5.11,0,*54
1545919700.97,29965,0.0,0.0,-4.55,-5.19,-5.11,0,*5D
1545919702.24,29966,0.0,0.0,-4.55,-5.11,-5.11,0,*56
1545919703.51,29967,0.0,0.0,-4.55,-5.23,-5.11,0,*56
1545919704.78,29968,0.0,0.0,-4.55,-5.19,-5.19,0,*58
1545919706.05,29969,0.0,0.0,-4.51,-5.19,-5.15,0,*51
1545919707.32,29970,0.0,0.0,-4.51,-5.19,-5.19,0,*55
1545919708.59,29971,0.0,0.0,-4.51,-5.19,-5.19,0,*54
1545919709.86,29972,0.0,0.0,-4.51,-5.19,-5.19,0,*57
1545919711.14,29973,0.0,0.0,-4.55,-5.31,-5.23,0,*51
1545919712.41,29974,0.0,0.0,-4.55,-5.31,-5.23,0,*56
1545919713.69,29975,0.0,0.0,-4.55,-5.31,-5.23,0,*57
1545919714.96,29976,0.0,0.0,-4.55,-5.23,-5.19,0,*5E
1545919716.24,29977,0.0,0.0,-4.55,-5.23,-5.23,0,*56
1545919717.51,29978,0.0,0.0,-4.55,-5.23,-5.31,0,*5A
1545919718.78,29979,0.0,0.0,-4.51,-5.19,-5.19,0,*5C
1545919720.05,29980,0.0,0.0,-4.55,-5.23,-5.23,0,*5E
1545919721.33,29981,0.0,0.0,-4.51,-5.19,-5.27,0,*56
1545919722.6,29982,0.0,0.0,-4.55,-5.23,-5.19,0,*55
1545919723.87,29983,0.0,0.0,-4.55,-5.19,-5.19,0,*5D
1545919725.14,29984,0.0,0.0,-4.55,-5.23,-5.23,0,*5A
1545919726.4,29985,0.0,0.0,-4.57,-5.31,-5.23,0,*5A
1545919727.67,29986,0.0,0.0,-4.55,-5.19,-5.19,0,*58
1545919728.94,29987,0.0,0.0,-4.55,-5.19,-5.23,0,*50
1545919730.21,29988,0.0,0.0,-4.55,-5.23,-5.23,0,*56
1545919731.46,29989,0.0,0.0,-4.57,-5.19,-5.19,0,*55
1545919732.73,29990,0.0,0.0,-4.55,-5.19,-5.23,0,*56
1545919734.0,29991,0.0,0.0,-4.55,-5.23,-5.11,0,*5F
1545919735.27,29992,0.0,0.0,-4.55,-5.19,-5.19,0,*5D
1545919736.54,29993,0.0,0.0,-4.55,-5.19,-5.23,0,*55
1545919737.81,29994,0.0,0.0,-4.55,-5.19,-5.11,0,*53
1545919739.08,29995,0.0,0.0,-4.55,-5.19,-5.19,0,*5A
1545919740.35,29996,0.0,0.0,-4.55,-5.19,-5.19,0,*59
1545919741.62,29997,0.0,0.0,-4.55,-5.23,-5.19,0,*51
1545919742.89,29998,0.0,0.0,-4.55,-5.19,-5.19,0,*57
1545919744.16,29999,0.0,0.0,-4.55,-5.19,-5.07,0,*59
1545919745.43,30000,0.0,0.0,-4.55,-5.11,-5.07,0,*50
1545919746.69,30001,0.0,0.0,-4.55,-5.11,-5.07,0,*51
1545919747.96,30002,0.0,0.0,-4.55,-5.11,-5.11,0,*55
1545919749.22,30003,0.0,0.0,-4.55,-5.11,-5.11,0,*54
1545919750.49,30004,0.0,0.0,-4.55,-5.11,-5.07,0,*54
1545919751.77,30005,0.0,0.0,-4.51,-5.07,-5.07,0,*56
1545919753.03,30006,0.0,0.0,-4.55,-5.11,-5.11,0,*51
1545919754.3,30007,0.0,0.0,-4.55,-5.23,-5.19,0,*59
1545919755.58,30008,0.0,0.0,-4.55,-5.23,-5.23,0,*5F
1545919756.85,30009,0.0,0.0,-4.55,-5.23,-5.23,0,*5E
1545919758.12,30010,0.0,0.0,-4.55,-5.23,-5.19,0,*5F
1545919759.39,30011,0.0,0.0,-4.55,-5.19,-5.19,0,*57
1545919760.66,30012,0.0,0.0,-4.55,-5.11,-5.07,0,*53
1545919761.93,30013,0.0,0.0,-4.55,-5.19,-5.11,0,*5D
1545919763.2,30014,0.0,0.0,-4.55,-5.11,-5.23,0,*53
1545919764.47,30015,0.0,0.0,-4.55,-5.23,-5.23,0,*53
1545919765.74,30016,0.0,0.0,-4.55,-5.19,-5.19,0,*50
1545919767.01,30017,0.0,0.0,-4.55,-5.19,-5.19,0,*51
1545919768.28,30018,0.0,0.0,-4.51,-5.19,-5.19,0,*5A
1545919769.55,30019,0.0,0.0,-4.55,-5.19,-5.07,0,*50
1545919770.83,30020,0.0,0.0,-4.51,-5.07,-5.07,0,*51
1545919772.11,30021,0.0,0.0,-4.51,-5.07,-5.07,0,*50
1545919773.37,30022,0.0,0.0,-4.55,-5.11,-5.11,0,*57
1545919774.65,30023,0.0,0.0,-4.51,-5.07,-5.19,0,*5D
1545919775.92,30024,0.0,0.0,-4.55,-5.23,-5.19,0,*58
1545919777.19,30025,0.0,0.0,-4.55,-5.23,-5.23,0,*50
1545919778.47,30026,0.0,0.0,-4.55,-5.23,-5.23,0,*53
1545919779.74,30027,0.0,0.0,-4.51,-5.19,-5.19,0,*56
1545919781.02,30028,0.0,0.0,-4.55,-5.23,-5.23,0,*5D